When you browse on this site, cookies collect data to enhance your experience and personalize the content and advertising you see.
Visit our Privacy Policy to learn more. By continuing to use the site, you agree to this use of cookies and data.

Stündliche Wetter Zorya

Heute, 6 August, Donnerstag

Zeit Temperatur Niederschläge Wind Luftdruck Luftfeuchtigkeit
00:00 +20°C° 0 mm 1 m/S 751 mmHg 82%
01:00 +19°C° 0 mm 1 m/S 751 mmHg 85%
02:00 +18°C° 0 mm 2 m/S 751 mmHg 87%
03:00 +19°C° 0 mm 1 m/S 751 mmHg 87%
04:00 +19°C° 0 mm 1 m/S 752 mmHg 86%
05:00 +19°C° 0 mm 1 m/S 752 mmHg 86%
06:00 +20°C° 0 mm 1 m/S 752 mmHg 83%
07:00 +19°C° 0 mm 0 m/S 752 mmHg 81%
08:00 +20°C° 0 mm 0 m/S 752 mmHg 78%
09:00 +24°C° 0 mm 1 m/S 752 mmHg 73%
10:00 +25°C° 0 mm 1 m/S 752 mmHg 68%
11:00 +27°C° 0 mm 2 m/S 753 mmHg 63%
12:00 +27°C° 0.5 mm 2 m/S 753 mmHg 64%
13:00 +28°C° 0.5 mm 3 m/S 753 mmHg 65%
14:00 +28°C° 0.5 mm 3 m/S 753 mmHg 66%
15:00 +27°C° 0.5 mm 3 m/S 753 mmHg 69%
16:00 +27°C° 0.5 mm 3 m/S 753 mmHg 73%
17:00 +27°C° 0.5 mm 3 m/S 752 mmHg 76%
18:00 +25°C° 0.1 mm 3 m/S 753 mmHg 81%
19:00 +24°C° 0.1 mm 3 m/S 753 mmHg 86%
20:00 +21°C° 0.1 mm 3 m/S 753 mmHg 91%
21:00 +21°C° 0 mm 3 m/S 753 mmHg 91%
22:00 +20°C° 0 mm 3 m/S 753 mmHg 91%
23:00 +19°C° 0 mm 4 m/S 753 mmHg 91%

Morgen, 7 August, Freitag

Zeit Temperatur Niederschläge Wind Luftdruck Luftfeuchtigkeit
00:00 +18°C° 0 mm 4 m/S 753 mmHg 90%
01:00 +18°C° 0 mm 4 m/S 754 mmHg 90%
02:00 +17°C° 0 mm 3 m/S 754 mmHg 89%
03:00 +16°C° 0 mm 3 m/S 754 mmHg 88%
04:00 +16°C° 0 mm 3 m/S 754 mmHg 88%
05:00 +14°C° 0 mm 3 m/S 754 mmHg 87%
06:00 +17°C° 0 mm 4 m/S 754 mmHg 82%
07:00 +18°C° 0 mm 4 m/S 754 mmHg 77%
08:00 +20°C° 0 mm 4 m/S 755 mmHg 71%
09:00 +21°C° 0 mm 5 m/S 755 mmHg 67%
10:00 +23°C° 0 mm 5 m/S 755 mmHg 62%
11:00 +25°C° 0 mm 5 m/S 755 mmHg 58%
12:00 +25°C° 0 mm 5 m/S 755 mmHg 57%
13:00 +26°C° 0 mm 5 m/S 755 mmHg 57%
14:00 +26°C° 0 mm 5 m/S 754 mmHg 57%
15:00 +26°C° 0 mm 5 m/S 754 mmHg 59%
16:00 +25°C° 0 mm 5 m/S 754 mmHg 61%
17:00 +25°C° 0 mm 4 m/S 754 mmHg 64%
18:00 +22°C° 0 mm 4 m/S 754 mmHg 69%
19:00 +21°C° 0 mm 3 m/S 754 mmHg 74%
20:00 +19°C° 0 mm 3 m/S 754 mmHg 79%
21:00 +19°C° 0 mm 3 m/S 754 mmHg 81%
22:00 +18°C° 0 mm 3 m/S 754 mmHg 83%
23:00 +17°C° 0 mm 2 m/S 754 mmHg 85%

übermorgen, 8 August, Samstag

Zeit Temperatur Niederschläge Wind Luftdruck Luftfeuchtigkeit
00:00 +17°C° 0 mm 2 m/S 754 mmHg 86%
01:00 +16°C° 0 mm 2 m/S 754 mmHg 87%
02:00 +16°C° 0 mm 2 m/S 754 mmHg 89%
03:00 +16°C° 0 mm 2 m/S 754 mmHg 90%
04:00 +16°C° 0 mm 2 m/S 754 mmHg 91%
05:00 +16°C° 0 mm 2 m/S 754 mmHg 92%
06:00 +17°C° 0 mm 3 m/S 754 mmHg 86%
07:00 +19°C° 0 mm 3 m/S 754 mmHg 81%
08:00 +21°C° 0 mm 3 m/S 754 mmHg 75%
09:00 +22°C° 0 mm 3 m/S 754 mmHg 70%
10:00 +24°C° 0 mm 3 m/S 754 mmHg 65%
11:00 +26°C° 0 mm 3 m/S 754 mmHg 60%
12:00 +26°C° 0 mm 3 m/S 753 mmHg 58%
13:00 +26°C° 0 mm 3 m/S 753 mmHg 57%
14:00 +27°C° 0 mm 3 m/S 752 mmHg 55%
15:00 +26°C° 0 mm 3 m/S 752 mmHg 58%
16:00 +26°C° 0 mm 3 m/S 752 mmHg 60%
17:00 +26°C° 0 mm 3 m/S 752 mmHg 63%
18:00 +24°C° 0 mm 3 m/S 751 mmHg 69%
19:00 +21°C° 0 mm 2 m/S 751 mmHg 75%
20:00 +20°C° 0 mm 2 m/S 751 mmHg 81%
21:00 +20°C° 0 mm 1 m/S 751 mmHg 83%
22:00 +19°C° 0 mm 1 m/S 751 mmHg 85%
23:00 +19°C° 0 mm 1 m/S 751 mmHg 87%

9 August, Sonntag

Zeit Temperatur Niederschläge Wind Luftdruck Luftfeuchtigkeit
00:00 +18°C° 0 mm 1 m/S 751 mmHg 87%
01:00 +18°C° 0 mm 1 m/S 751 mmHg 87%
02:00 +16°C° 0 mm 1 m/S 751 mmHg 87%
03:00 +16°C° 0 mm 1 m/S 751 mmHg 88%
04:00 +16°C° 0 mm 1 m/S 751 mmHg 88%
05:00 +16°C° 0 mm 1 m/S 751 mmHg 88%
06:00 +19°C° 0 mm 1 m/S 751 mmHg 82%
07:00 +20°C° 0 mm 1 m/S 751 mmHg 76%
08:00 +21°C° 0 mm 2 m/S 751 mmHg 70%
09:00 +23°C° 0 mm 2 m/S 751 mmHg 66%
10:00 +24°C° 0 mm 2 m/S 751 mmHg 61%
11:00 +26°C° 0 mm 2 m/S 750 mmHg 57%
12:00 +26°C° 0.1 mm 2 m/S 750 mmHg 57%
13:00 +26°C° 0.1 mm 3 m/S 750 mmHg 56%
14:00 +27°C° 0.1 mm 3 m/S 750 mmHg 56%
15:00 +26°C° 0.2 mm 3 m/S 750 mmHg 61%
16:00 +25°C° 0.2 mm 2 m/S 749 mmHg 66%
17:00 +25°C° 0.2 mm 2 m/S 749 mmHg 71%
18:00 +23°C° 0 mm 2 m/S 749 mmHg 75%
19:00 +21°C° 0 mm 2 m/S 749 mmHg 79%
20:00 +20°C° 0 mm 2 m/S 749 mmHg 83%
21:00 +19°C° 0 mm 2 m/S 749 mmHg 85%
22:00 +19°C° 0 mm 2 m/S 749 mmHg 86%
23:00 +18°C° 0 mm 2 m/S 749 mmHg 87%

10 August, Montag

Zeit Temperatur Niederschläge Wind Luftdruck Luftfeuchtigkeit
00:00 +18°C° 0 mm 2 m/S 749 mmHg 89%
01:00 +17°C° 0 mm 2 m/S 749 mmHg 90%
02:00 +17°C° 0 mm 2 m/S 749 mmHg 91%
03:00 +17°C° 0 mm 2 m/S 749 mmHg 92%
04:00 +17°C° 0 mm 2 m/S 750 mmHg 93%
05:00 +17°C° 0 mm 2 m/S 750 mmHg 94%
06:00 +18°C° 0 mm 2 m/S 750 mmHg 88%
07:00 +20°C° 0 mm 2 m/S 750 mmHg 83%
08:00 +22°C° 0 mm 3 m/S 750 mmHg 77%
09:00 +24°C° 0 mm 3 m/S 750 mmHg 71%
10:00 +25°C° 0 mm 3 m/S 750 mmHg 65%
11:00 +27°C° 0 mm 3 m/S 750 mmHg 59%
12:00 +27°C° 0 mm 3 m/S 750 mmHg 58%
13:00 +27°C° 0 mm 3 m/S 750 mmHg 56%
14:00 +28°C° 0 mm 3 m/S 750 mmHg 54%
15:00 +27°C° 0 mm 3 m/S 749 mmHg 57%
16:00 +27°C° 0 mm 2 m/S 749 mmHg 59%
17:00 +27°C° 0 mm 2 m/S 749 mmHg 62%
18:00 +25°C° 0.1 mm 2 m/S 749 mmHg 68%
19:00 +23°C° 0.1 mm 2 m/S 749 mmHg 73%
20:00 +22°C° 0.1 mm 1 m/S 749 mmHg 79%
21:00 +21°C° 0.1 mm 1 m/S 749 mmHg 81%
22:00 +20°C° 0.1 mm 1 m/S 749 mmHg 83%
23:00 +20°C° 0.1 mm 1 m/S 750 mmHg 86%

11 August, Dienstag

Zeit Temperatur Niederschläge Wind Luftdruck Luftfeuchtigkeit
00:00 +18°C° 0 mm 0 m/S 750 mmHg 87%
01:00 +17°C° 0 mm 0 m/S 750 mmHg 88%
02:00 +17°C° 0 mm 0 m/S 750 mmHg 89%
03:00 +17°C° 0 mm 0 m/S 750 mmHg 89%
04:00 +19°C° 0 mm 1 m/S 750 mmHg 90%
05:00 +18°C° 0 mm 1 m/S 750 mmHg 91%
06:00 +20°C° 0 mm 1 m/S 750 mmHg 85%
07:00 +22°C° 0 mm 1 m/S 750 mmHg 80%
08:00 +23°C° 0 mm 1 m/S 750 mmHg 75%
09:00 +25°C° 0 mm 1 m/S 750 mmHg 69%
10:00 +26°C° 0 mm 2 m/S 750 mmHg 64%
11:00 +27°C° 0 mm 2 m/S 749 mmHg 58%
12:00 +28°C° 0 mm 2 m/S 749 mmHg 55%
13:00 +28°C° 0 mm 2 m/S 749 mmHg 52%
14:00 +29°C° 0 mm 2 m/S 749 mmHg 49%
15:00 +29°C° 0 mm 2 m/S 749 mmHg 52%
16:00 +28°C° 0 mm 2 m/S 749 mmHg 55%
17:00 +28°C° 0 mm 2 m/S 748 mmHg 58%
18:00 +26°C° 0.1 mm 2 m/S 748 mmHg 65%
19:00 +24°C° 0.1 mm 2 m/S 748 mmHg 71%
20:00 +21°C° 0.1 mm 2 m/S 748 mmHg 78%
21:00 +21°C° 0.1 mm 2 m/S 748 mmHg 81%
22:00 +20°C° 0.1 mm 2 m/S 748 mmHg 84%
23:00 +19°C° 0.1 mm 2 m/S 748 mmHg 86%
Mehr zeigen